Satellite: IDEFIX/ARIANE 
Catalog number: 27422
Epoch time:      103018.21115530
Element set:     211 
Inclination:       98.6999 deg
RA of node:        97.5514 deg
Eccentricity:    0.0011891
Arg of perigee:   238.9635 deg
Mean anomaly:     121.0378 deg
Mean motion:   14.27952215 rev/day
Decay rate:    3.6799E-006 rev/day^2
Epoch rev:            3698
Checksum:              328

Satellite: NOAA 17
Catalog number: 27453
Epoch time:      103017.93076640
Element set:     271 
Inclination:       98.7621 deg
RA of node:        89.3001 deg
Eccentricity:    0.0012676
Arg of perigee:    88.3432 deg
Mean anomaly:     271.9198 deg
Mean motion:   14.23273333 rev/day
Decay rate:    3.6799E-006 rev/day^2
Epoch rev:            2946
Checksum:              326

Satellite: HOT BIRD 6
Catalog number: 27499
Epoch time:      103013.80550721
Element set:     66 
Inclination:        0.0928 deg
RA of node:        32.8693 deg
Eccentricity:    0.0008090
Arg of perigee:   290.3889 deg
Mean anomaly:      92.5421 deg
Mean motion:    1.00271722 rev/day
Decay rate:    1.0600E-006 rev/day^2
Epoch rev:             147
Checksum:              269

Satellite: RUBIN 2
Catalog number: 27605
Epoch time:      103018.17917347
Element set:     32 
Inclination:       64.5526 deg
RA of node:       292.5543 deg
Eccentricity:    0.0030634
Arg of perigee:   124.0196 deg
Mean anomaly:     236.3818 deg
Mean motion:   14.71381413 rev/day
Decay rate:    1.0869E-005 rev/day^2
Epoch rev:             419
Checksum:              290

Satellite: STS-107
Catalog number: 27647
Epoch time:      103018.25000000
Element set:     12 
Inclination:       39.0161 deg
RA of node:       218.5631 deg
Eccentricity:    0.0012449
Arg of perigee:     1.9742 deg
Mean anomaly:     232.4243 deg
Mean motion:   15.97705154 rev/day
Decay rate:    5.4034E-004 rev/day^2
Epoch rev:              24
Checksum:              244


Read previous mail | Read next mail


 31.10.2025 01:47:12lGo back Go up